This is the latest recevied weather packets stored in our database for station/object E20YUC-1. If no packets are shown the sender has not sent any weather packets the latest 10 day(s).
| Time | Temp. | Humidity | Pressure | Rain* | Wind** | Luminosity | Snow |
|---|---|---|---|---|---|---|---|
| 1787683970 | 28.33° C | 73% | 995 hPa | 0 mm | 0.89 m/s, 0° | - | - |
| 1787683672 | 28.33° C | 73% | 995.1 hPa | 0 mm | 0.89 m/s, 0° | - | - |
| 1787683370 | 28.33° C | 73% | 995.1 hPa | 0 mm | 1.34 m/s, 0° | - | - |
| 1787683010 | 28.33° C | 73% | 995.2 hPa | 0 mm | 0 m/s | - | - |
| 1787682710 | 28.33° C | 73% | 995.3 hPa | 0 mm | 2.24 m/s, 0° | - | - |
| 1787682410 | 28.33° C | 73% | 995.3 hPa | 0 mm | 2.24 m/s, 0° | - | - |
| 1787682112 | 28.33° C | 72% | 995.3 hPa | 0 mm | 0 m/s | - | - |
| 1787681810 | 28.89° C | 72% | 995.3 hPa | 0 mm | 0 m/s | - | - |
| 1787681510 | 28.89° C | 72% | 995.4 hPa | 0 mm | 1.79 m/s, 0° | - | - |
| 1787681211 | 28.89° C | 72% | 995.4 hPa | 0 mm | 0 m/s | - | - |
| 1787680912 | 28.89° C | 72% | 995.5 hPa | 0 mm | 4.02 m/s, 0° | - | - |
| 1787680612 | 28.89° C | 72% | 995.5 hPa | 0 mm | 3.58 m/s, 0° | - | - |
| 1787680310 | 28.89° C | 72% | 995.6 hPa | 0 mm | 1.79 m/s, 0° | - | - |
| 1787680010 | 28.89° C | 72% | 995.6 hPa | 0 mm | 0 m/s | - | - |
| 1787679410 | 28.89° C | 72% | 995.5 hPa | 0 mm | 2.24 m/s, 0° | - | - |
| 1787679111 | 28.89° C | 72% | 995.6 hPa | 0 mm | 0 m/s | - | - |
| 1787678509 | 28.89° C | 72% | 995.6 hPa | 0 mm | 4.92 m/s, 0° | - | - |
| 1787678209 | 28.89° C | 71% | 995.7 hPa | 0 mm | 3.13 m/s, 0° | - | - |
| 1787677909 | 28.89° C | 71% | 995.9 hPa | 0 mm | 1.34 m/s, 0° | - | - |
| 1787677611 | 28.89° C | 71% | 995.9 hPa | 0 mm | 3.58 m/s, 0° | - | - |
| 1787677312 | 28.89° C | 71% | 995.8 hPa | 0 mm | 0.89 m/s, 0° | - | - |
| 1787676709 | 28.89° C | 71% | 996.1 hPa | 0 mm | 0.45 m/s, 0° | - | - |
| 1787676409 | 28.89° C | 71% | 996.1 hPa | 0 mm | 1.34 m/s, 0° | - | - |
| 1787676111 | 28.89° C | 71% | 996.3 hPa | 0 mm | 1.34 m/s, 0° | - | - |
| 1787675509 | 28.89° C | 70% | 996.2 hPa | 0 mm | 1.34 m/s, 0° | - | - |
* Rain latest hour (hover to see other rain measurements)
** Current wind speed in m/s (hover to see current wind gust speed)